Regional Weather Roundup
Issued by NWS Albany, NY

Current Version | Previous Version | Graphics & Text | Print | Product List | Glossary Off
Versions: 1 2 3 4 5 6 7 8 9 10 11 12 13 14 15 16 17 18 19 20 21 22 23 24 25 26 27 28 29 30 31 32 33 34 35 36 37 38 39 40 41 42 43 44 45 46 47 48 49 50

000
ASUS41 KALY 010010
RWRALY

NEW YORK STATE HOURLY WEATHER ROUNDUP
NATIONAL WEATHER SERVICE ALBANY NY
800 PM EDT FRI JUL 31 2015

NOTE: "FAIR" INDICATES FEW OR NO CLOUDS BELOW 12,000 FEET WITH NO
SIGNIFICANT WEATHER AND/OR NO OBSTRUCTIONS TO VISIBILITY.

NYZ032-033-038>043-046>054-057>066-NYZ062>081-010100-
EAST


CITY           SKY/WX    TMP DP  RH WIND       PRES   REMARKS
ALBANY         PTCLDY    80  55  42 CALM      29.78S
GLENS FALLS    CLEAR     77  55  46 SW6       29.76R
POUGHKEEPSIE   CLEAR     81  57  43 CALM      29.78F
NEWBURGH       CLEAR     81  57  44 W7        29.82S
MONTGOMERY     CLEAR     78  61  55 CALM      29.80F
WHITE PLAINS   CLEAR     77  57  50 CALM      29.81S
ISLIP          CLEAR     82  55  39 NW5       29.78S
NEW YORK CITY  PTCLDY    85  55  35 W6        29.79S
CENTRAL PARK   CLEAR     85  51  31 VRB5      29.82S
$$

NYZ005>009-017-018-044>046-055-056-010100-
CENTRAL


CITY           SKY/WX    TMP DP  RH WIND       PRES   REMARKS
FULTON         PTCLDY    72  67  84 SE3       29.77R
SYRACUSE       PTCLDY    76  61  59 SW5       29.76S
ROME           PTCLDY    71  62  73 E3        29.79R
ELMIRA         PTCLDY    79  61  53 W5        29.80S
BINGHAMTON     MOCLDY    73  59  61 SW6       29.84F
MONTICELLO     CLEAR     75  57  53 SW3       29.87S
$$

NYZ026>034-041>043-010100-
NORTH


CITY           SKY/WX    TMP DP  RH WIND       PRES   REMARKS
WATERTOWN      PTCLDY    74  60  61 SW6       29.74S
FORT DRUM      NOT AVBL
MASSENA        PTCLDY    75  55  49 SW13      29.70S
SARANAC LAKE   CLEAR     71  52  50 SW7       29.78R
PLATTSBURGH    CLEAR     74  60  61 CALM      29.71R
$$

NYZ001>004-010>016-019>021-010100-
WEST


CITY           SKY/WX    TMP DP  RH WIND       PRES   REMARKS
NIAGARA FALLS  MOCLDY    76  63  64 SW14G23   29.77F
BUFFALO        PTCLDY    76  62  62 SW15G25   29.79F
DUNKIRK        MOCLDY    77  62  59 SW10      29.82S
JAMESTOWN      MOCLDY    73  52  46 W7        29.88S
WELLSVILLE     CLEAR     73  56  54 W6        29.90R
ROCHESTER      MOCLDY    78  55  44 W13       29.77F
PENN YAN       CLEAR     77  58  51 W6        29.81S
$$

             KEY
       WCI = WIND CHILL INDEX
       VSB = VISIBILITY
       HX  = HEAT INDEX
$$



USA.gov is the U.S. government's official web portal to all federal, state and local government web resources and services.